Location: Gollag?dem
(17.0207°N, 80.7261°E)
Time: 23:48:18
(UTC+00:00)

CZ-4 R/B - Pass Details

Date: 03 August 2024
Orbit: 513 x 565 km, 97.6° (Epoch: 18 September)

Event Time Altitude Azimuth Distance (km) Brightness Sun altitude
Exits shadow 14:32:22 23° 181° (S) 1,190 2.8 -19.4°
Maximum altitude 14:34:43 67° 259° (W) 591 1.5 -19.9°
Drops below altitude 10° 14:38:34 10° 342° (NNW) 1,793 4.5 -20.7°
Sets 14:40:40 0° 345° (NNW) 2,675 5.4 -21.1°
